Home   Weather   Kobe   Past weeks

Flag for Japan Past Weather in Kobe, Japan — Yesterday and Last 2 Weeks

Now
37 °F

Passing clouds.


Feels Like: 31 °F
Forecast: 31 / 42 °F
Wind: 8 mph from North

Location: Kansai International Airport

Current Time: Jan 24, 2017 at 4:27:20 am

Latest Report: Jan 24, 2017 at 4:00 am


Visibility: N/A

Pressure: 30.24 "Hg

Humidity: 56%

Dew Point: 23 °F

Location of KobeLocation

Past Weather in Kobe — Graph

°F

Kobe Temperature Yesterday

Maximum temperature yesterday: 41 °F (at 2:10 pm)
Minimum temperature yesterday: 34 °F (at 5:00 pm)
Average temperature yesterday: 37 °F

High & Low Weather Summary for the Past Weeks

 TemperatureHumidityPressure
High55 °F (Jan 10, 1:30 pm)87% (Jan 9, 5:30 am)30.45 "Hg (Jan 9, 5:30 am)
Low32 °F (Jan 14, 10:18 pm)34% (Jan 18, 3:30 pm)29.71 "Hg (Jan 9, 3:00 am)
Average43 °F58%30.03 "Hg
* Reported Jan 9 3:00 am — Jan 24 3:30 am, Kobe, Weather by CustomWeather, © 2017

Note: Actual official high and low records may vary slightly from our data, if they occured in-between our weather recording intervals... More about our weather records

Advertising

Kobe Weather History for the Previous 24 Hours

Scroll right to see more
 ConditionsComfort  
Time TempWeatherWind HumidityBarometerVisibility
3:30 am
Tue, Jan 24
36 °FPassing clouds.6 mph65%30.24 "HgN/A
3:00 am36 °FPassing clouds.7 mph65%30.24 "HgN/A
2:30 am36 °FPassing clouds.7 mph70%30.24 "HgN/A
2:00 am36 °FPassing clouds.8 mph65%30.24 "HgN/A
1:30 am36 °FPassing clouds.8 mph65%30.21 "HgN/A
1:00 am37 °FPassing clouds.10 mph65%30.21 "HgN/A
12:30 am37 °FPassing clouds.12 mph65%30.21 "HgN/A
12:00 am37 °FPartly cloudy.13 mph65%30.21 "HgN/A
11:30 pm
Mon, Jan 23
37 °FPartly cloudy.13 mph65%30.21 "HgN/A
11:00 pm37 °FPartly cloudy.12 mph65%30.21 "HgN/A
10:30 pm37 °FPartly cloudy.10 mph65%30.21 "HgN/A
10:00 pm37 °FPartly cloudy.10 mph65%30.21 "HgN/A
9:30 pm37 °FPassing clouds.10 mph65%30.21 "HgN/A
9:00 pm37 °FPartly cloudy.12 mph65%30.21 "HgN/A
8:30 pm37 °FPassing clouds.12 mph65%30.18 "HgN/A
8:00 pm37 °FPassing clouds.12 mph65%30.18 "HgN/A
7:30 pm36 °FPassing clouds.12 mph70%30.18 "HgN/A
7:00 pm37 °FPassing clouds.14 mph65%30.18 "HgN/A
6:30 pm37 °FScattered showers. Partly cloudy.14 mph70%30.15 "HgN/A
6:00 pm37 °FSnow flurries. Partly cloudy.14 mph65%30.15 "HgN/A
5:30 pm37 °FSnow flurries. Partly cloudy.10 mph70%30.12 "HgN/A
5:07 pm36 °FSnow flurries. Broken clouds.10 mph81%30.12 "HgN/A
5:00 pm34 °FSnow flurries. Broken clouds.14 mph87%30.12 "Hg2 mi
4:50 pm36 °FSnow flurries. Broken clouds.15 mph81%30.12 "Hg2 mi
4:30 pm36 °FSnow flurries. Broken clouds.14 mph81%30.12 "HgN/A
4:17 pm37 °FSnow flurries. Partly sunny.12 mph70%30.12 "Hg1 mi
4:00 pm36 °FSnow flurries. Broken clouds.15 mph81%30.09 "Hg2 mi
3:49 pm37 °FSnow flurries. Broken clouds.16 mph70%30.09 "Hg2 mi
3:30 pm37 °FSnow flurries. Partly sunny.16 mph70%30.09 "HgN/A
3:00 pm37 °FScattered showers. Broken clouds.17 mph70%30.07 "HgN/A
2:30 pm37 °FSnow flurries. Broken clouds.23 mph75%30.07 "HgN/A
2:10 pm41 °FSnow flurries. Partly sunny.17 mph53%30.07 "HgN/A
2:00 pm39 °FScattered showers. Scattered clouds.16 mph56%30.07 "HgN/A
1:30 pm39 °FScattered showers. Broken clouds.23 mph61%30.07 "HgN/A
1:00 pm39 °FScattered showers. Partly sunny.18 mph52%30.07 "HgN/A
12:30 pm39 °FScattered showers. Broken clouds.22 mph52%30.07 "HgN/A
12:00 pm39 °FScattered showers. Broken clouds.20 mph52%30.07 "HgN/A
11:30 am37 °FBroken clouds.21 mph60%30.09 "HgN/A
11:00 am37 °FBroken clouds.24 mph56%30.09 "HgN/A
10:34 am37 °FPartly sunny.24 mph56%30.09 "HgN/A
10:30 am37 °FPartly sunny.24 mph56%30.09 "HgN/A
10:00 am37 °FPartly sunny.23 mph56%30.09 "HgN/A
9:30 am39 °FPartly sunny.23 mph48%30.09 "HgN/A
9:00 am39 °FPartly sunny.22 mph52%30.09 "HgN/A
8:30 am37 °FPartly sunny.21 mph56%30.09 "HgN/A
8:01 am37 °FPartly sunny.22 mph52%30.09 "HgN/A
7:30 am37 °FPartly sunny.22 mph56%30.07 "HgN/A
7:00 am37 °FPassing clouds.23 mph52%30.07 "HgN/A
6:30 am37 °FPassing clouds.24 mph56%30.07 "HgN/A
6:01 am37 °FPassing clouds.24 mph56%30.07 "HgN/A
5:33 am37 °FPassing clouds.22 mph56%30.07 "HgN/A
5:30 am37 °FPassing clouds.22 mph56%30.04 "HgN/A
5:07 am37 °FPassing clouds.23 mph60%30.04 "HgN/A
5:00 am37 °FPassing clouds.22 mph60%30.04 "HgN/A
4:30 am37 °FPassing clouds.21 mph52%30.04 "HgN/A
4:13 am37 °FPassing clouds.23 mph56%30.04 "HgN/A
4:00 am37 °FPassing clouds.23 mph56%30.04 "HgN/A
Weather by CustomWeather, © 2017

See weather overviewHow to use our weather pages